Station CAMM2 - 8571892 - Cambridge, MD Image indicating link to RSS feed of recent meteorological observations for station CAMM2


Conditions at CAMM2 as of
(4:30 am EDT)
0830 GMT on 05/22/2024:
     

Click on the graph icon in the table below to see a time series plot of the last five days of that observation.

5-day plot - Wind Direction Wind Direction (WDIR):SSE ( 160 deg true )
5-day plot - Wind Speed Wind Speed (WSPD): 2.9 kts
5-day plot - Wind Gust Wind Gust (GST): 4.1 kts
5-day plot - Atmospheric Pressure Atmospheric Pressure (PRES):30.01 in
5-day plot - Air Temperature Air Temperature (ATMP): 63.1 °F
5-day plot - Water Temperature Water Temperature (WTMP): 67.5 °F
5-day plot - Wind Speed at 10 Meters Wind Speed at 10 meters (WSPD10M): 3.9 kts
5-day plot - Wind Speed at 20 Meters Wind Speed at 20 meters (WSPD20M): 3.9 kts
5-day plot -  Wind Speed, Wind Gust and Atmospheric Pressure Combined plot of Wind Speed, Gust, and Air Pressure
NOS Water Level Observation Network Water Level
Previous observations
TIME
(EDT)
5-day plot - Wind Direction
WDIR
 
5-day plot - Wind Speed
WSPD
kts
5-day plot - Wind Gust
GST
kts
5-day plot - Wave Height
WVHT
ft
5-day plot - Dominant Wave Period
DPD
sec
5-day plot - Average Wave Period
APD
sec
5-day plot - Mean Wave Direction
MWD
 
5-day plot - Atmospheric Pressure
PRES
in
5-day plot - Pressure Tendency
PTDY
in
5-day plot - Air Temperature
ATMP
°F
5-day plot - Water Temperature
WTMP
°F
5-day plot - Dew Point
DEWP
°F
5-day plot - Salinity
SAL
psu
5-day plot - Visibility
VIS
nmi
5-day plot - Tide (above MLLW)
TIDE
ft
2024-05-22 04:24 am S 2.9 5.1----30.01- 63.1 67.5----
2024-05-22 04:18 am S 2.9 4.1----30.01-------
2024-05-22 04:12 am S 2.9 5.1----30.01- 63.1 67.5----
2024-05-22 04:06 am S 2.9 4.1----30.01- 63.1 67.5----
2024-05-22 04:00 am S 1.9 2.9----30.01+0.00 63.1 67.5----
2024-05-22 03:54 am S 1.9 2.9----30.01- 63.1 67.5----
2024-05-22 03:48 am S 1.9 2.9----30.01- 63.1 67.5----
2024-05-22 03:42 amSSW 1.0 2.9----30.01- 63.3 67.5----
2024-05-22 03:36 am- 0.0 1.0----30.00- 63.3 67.5----
2024-05-22 03:30 am- 0.0 1.9----30.00- 63.1 67.5----
2024-05-22 03:24 am- 0.0 1.9----30.00- 63.1 67.5----
2024-05-22 03:18 am S 1.0 2.9----30.00- 63.3 67.5----
2024-05-22 03:12 am S 2.9 4.1----30.01- 63.3 67.5----
2024-05-22 03:06 amSSE 2.9 4.1----30.01- 63.5 67.5----
2024-05-22 03:00 amSSE 2.9 4.1----30.01-0.01 63.7 67.5----
2024-05-22 02:54 am S 1.9 5.1----30.01- 63.9 67.5----
2024-05-22 02:48 am S 4.1 5.1----30.01-- 67.5----
2024-05-22 02:42 am S 2.9 4.1----30.01- 63.9 67.5----
2024-05-22 02:36 am S 2.9 5.1----30.01- 64.0 67.5----
2024-05-22 02:30 am S 1.9 4.1----30.01- 64.0 67.3----
2024-05-22 02:24 am S 1.9 4.1----30.01- 63.9 67.3----
2024-05-22 02:18 am S 2.9 5.1----30.01-- 67.3----
2024-05-22 02:12 amSSW 2.9 6.0----30.01- 63.9 67.3----
2024-05-22 02:06 am S 4.1 6.0----30.01- 63.9 67.3----
2024-05-22 02:00 am S 4.1 5.1----30.01-0.01 63.9 67.3----
2024-05-22 01:54 am S 4.1 8.0----30.00- 63.7 67.5----
2024-05-22 01:48 am S 5.1 6.0----30.00-- 67.5----
2024-05-22 01:42 am S 5.1 6.0----30.01- 63.9 67.5----
2024-05-22 01:36 am S 4.1 7.0----30.01- 64.0 67.6----
2024-05-22 01:30 am S 5.1 7.0----30.00- 64.0 67.6----
2024-05-22 01:24 amSSE 5.1 6.0----30.00- 64.2 67.6----
2024-05-22 01:18 amSSE 4.1 7.0----30.00-------
2024-05-22 01:12 amSSE 5.1 6.0----30.00- 64.4 67.5----
2024-05-22 01:06 amSSE 5.1 7.0----30.00- 64.6 67.5----
2024-05-22 01:00 amSSE 4.1 5.1----30.00+0.00 64.6 67.5----
2024-05-22 12:54 am S 4.1 6.0----30.00- 64.8 67.5----
2024-05-22 12:48 am S 2.9 7.0----30.00- 64.8 67.5----
2024-05-22 12:42 amSSE 5.1 8.0----30.00- 64.9 67.5----
2024-05-22 12:36 am S 7.0 8.0----30.00- 64.9 67.6----
2024-05-22 12:30 am S 6.0 8.0----30.00- 65.1 67.6----
2024-05-22 12:24 am S 6.0 8.0----30.01- 65.1 67.6----
2024-05-22 12:18 am S 7.0 8.0----30.01- 65.3 67.6----
2024-05-22 12:12 am S 5.1 8.0----30.01- 65.7 67.6----
2024-05-22 12:06 am S 6.0 9.9----30.01- 65.7 67.6----
2024-05-22 12:00 am S 7.0 9.9----30.02+0.02 65.8 67.8----
2024-05-21 11:54 pm S 7.0 8.9----30.01- 65.8 67.8----
2024-05-21 11:48 pm S 6.0 8.9----30.02- 66.0 68.0----
2024-05-21 11:42 pm S 7.0 8.9----30.02- 66.2 68.0----
2024-05-21 11:36 pmSSE 6.0 8.0----30.02- 66.4 68.0----
2024-05-21 11:30 pmSSE 5.1 6.0----30.02- 66.7 68.0----
2024-05-21 11:24 pm S 4.1 6.0----30.02- 67.1 68.0----
2024-05-21 11:18 pm S 5.1 7.0----30.02- 67.1 68.0----
2024-05-21 11:12 pm S 5.1 6.0----30.02- 67.1 68.0----
2024-05-21 11:06 pm S 5.1 7.0----30.02- 67.3 68.0----
2024-05-21 11:00 pmSSW 5.1 7.0----30.02+0.02 67.5 68.0----
2024-05-21 10:54 pm S 5.1 6.0----30.02- 67.5 68.2----
2024-05-21 10:48 pmSSW 5.1 7.0----30.02- 67.6 68.2----
2024-05-21 10:42 pmSSW 5.1 6.0----30.02- 67.8 68.2----
2024-05-21 10:36 pm S 5.1 7.0----30.02- 67.8 68.2----
2024-05-21 10:30 pm S 6.0 8.9----30.02- 68.0 68.2----
2024-05-21 10:24 pmSSW 6.0 8.9----30.01- 68.0 68.2----
2024-05-21 10:18 pm S 7.0 9.9----30.01- 68.0 68.2----
2024-05-21 10:12 pm S 7.0 9.9----30.01- 68.2 68.2----
2024-05-21 10:06 pm S 6.0 8.9----30.01- 68.2 68.2----
2024-05-21 10:00 pm S 6.0 8.9----30.01+0.00 68.4 68.2----
2024-05-21 09:54 pm S 7.0 8.9----30.01- 68.5 68.2----
2024-05-21 09:48 pm S 7.0 9.9----30.01- 68.5 68.2----
2024-05-21 09:42 pm S 6.0 8.0----30.00- 68.7 68.2----
2024-05-21 09:36 pm S 5.1 8.0----30.00- 68.9 68.2----
2024-05-21 09:30 pm S 7.0 11.1----30.00- 68.9 68.2----
2024-05-21 09:24 pm S 7.0 9.9----29.99- 68.9 68.2----
2024-05-21 09:18 pm S 6.0 8.0----29.99-- 68.2----
2024-05-21 09:12 pm S 6.0 8.9----29.99- 69.3 68.2----
2024-05-21 09:06 pm S 7.0 8.9----30.00- 69.4 68.2----
2024-05-21 09:00 pm S 5.1 7.0----30.00+0.00 69.6 68.2----
2024-05-21 08:54 pm S 5.1 8.0----30.00- 70.0 68.2----
2024-05-21 08:48 pm S 6.0 8.0----30.00- 70.3 68.0----
2024-05-21 08:42 pm S 6.0 8.0----30.00- 70.7 68.0----
2024-05-21 08:36 pm S 7.0 8.9----30.00- 71.1 68.0----
2024-05-21 08:30 pm S 6.0 8.0----30.00- 71.2 68.0----
2024-05-21 08:24 pm S 6.0 8.9----30.00- 71.8 68.0----
2024-05-21 08:18 pm S 6.0 8.0----30.00- 72.1 68.0----
2024-05-21 08:12 pm S 7.0 9.9----30.00- 72.7 68.0----
2024-05-21 08:06 pm S 6.0 8.0----30.00- 73.2 68.0----
2024-05-21 08:00 pm S 6.0 8.0----30.00+0.01 73.8 68.2----
2024-05-21 07:54 pmSSW 6.0 8.0----30.01- 74.3 68.2----
2024-05-21 07:48 pmSSW 6.0 8.9----30.01- 74.5 68.2----
2024-05-21 07:42 pmSSW 6.0 8.0----30.01- 75.0 68.2----
2024-05-21 07:36 pmSSW 5.1 8.0----30.00- 75.6 68.4----
2024-05-21 07:30 pmSSW 5.1 8.0----30.01- 76.1 68.4----
2024-05-21 07:24 pm SW 6.0 8.0----30.01- 76.3 68.5----
2024-05-21 07:00 pm SW 7.0 8.9----30.01+0.00 77.4 68.9----
2024-05-21 06:54 pm SW 5.1 7.0----30.01- 77.4 68.9----
2024-05-21 06:48 pmSSW 4.1 8.0----30.01- 77.5 69.1----
2024-05-21 06:42 pmSSW 6.0 8.0----30.01- 77.7 69.1----
2024-05-21 06:36 pm SW 6.0 8.0----30.01- 77.5 69.1----
2024-05-21 06:30 pm SW 5.1 8.9----30.01- 77.9 68.7----
2024-05-21 06:24 pmSSW 6.0 9.9----30.01- 78.1 68.5----
2024-05-21 06:18 pmSSW 5.1 8.9----30.01- 78.3 68.5----
2024-05-21 06:12 pmSSW 7.0 8.9----30.00- 77.9 68.5----
2024-05-21 06:06 pmSSW 6.0 9.9----30.00- 78.3 68.5----
2024-05-21 06:00 pm S 7.0 8.9----30.00-0.01 77.9 68.7----
2024-05-21 05:54 pm SW 6.0 8.9----30.00- 78.4 68.7----
2024-05-21 05:48 pm SW 6.0 9.9----30.00- 78.3 68.7----
2024-05-21 05:42 pmSSW 7.0 12.0----30.00- 78.3 68.7----
2024-05-21 05:36 pm SW 7.0 12.0----30.00- 78.1 68.5----
2024-05-21 05:30 pm SW 6.0 8.9----29.99-- 68.5----
2024-05-21 05:24 pm S 6.0 8.9----29.99-- 68.7----
2024-05-21 05:18 pm SW 8.0 12.0----29.98-- 68.7----
2024-05-21 05:12 pmSSW 5.1 8.9----29.98-- 68.7----
2024-05-21 05:06 pm S 7.0 8.0----29.99-- 68.5----
2024-05-21 05:00 pm S 5.1 9.9----29.99-0.03 78.6 68.2----
2024-05-21 04:54 pm SW 5.1 8.9----29.99- 78.8 67.5----
2024-05-21 04:48 pmSSW 5.1 8.0----29.99-- 67.5----
2024-05-21 04:42 pmSSW 5.1 9.9----29.99-- 67.5----
2024-05-21 04:36 pmSSE 8.0 9.9----29.99-- 67.5----
2024-05-21 04:30 pm S 6.0 8.9----30.00-------
2024-05-21 04:24 pmWSW 2.9 8.0----30.00-------
2024-05-21 04:18 pmSSE 2.9 6.0----30.00-- 67.5----
2024-05-21 04:12 pmSSW 5.1 8.9----30.00-- 67.5----
2024-05-21 04:06 pm SW 1.9 4.1----30.00-- 67.5----
2024-05-21 04:00 pmSSE 1.9 4.1----30.01-0.03 79.7 67.5----
2024-05-21 03:54 pmWNW 4.1 7.0----30.01- 78.1 67.5----
2024-05-21 03:48 pmWSW 6.0 8.9----30.01-- 67.6----
2024-05-21 03:42 pmSSW 5.1 8.0----30.01-- 67.6----
2024-05-21 03:36 pmSSW 5.1 8.0----30.01-- 67.6----
2024-05-21 03:30 pmSSW 4.1 8.9------- 67.8----
2024-05-21 03:24 pm SW 5.1 8.0------- 68.0----
2024-05-21 03:18 pmWSW 2.9 8.0----30.01- 78.3 68.0----
2024-05-21 03:12 pmSSW 4.1 8.0----30.01- 78.6 68.0----
2024-05-21 03:06 pmWSW 4.1 8.0----30.01- 78.1 68.0----
2024-05-21 03:00 pmWSW 5.1 8.9----30.01-0.03 77.9 67.8----
2024-05-21 02:54 pmSSW 5.1 8.0----30.01- 78.4 67.6----
2024-05-21 02:48 pm SW 5.1 8.9----30.01-- 67.6----
2024-05-21 02:42 pm W 6.0 8.9----30.01- 77.4 67.6----
2024-05-21 02:36 pmWSW 6.0 11.1----30.01- 77.5 67.6----
2024-05-21 02:30 pmWSW 4.1 8.9----30.01- 77.7 67.6----
2024-05-21 02:24 pm S 7.0 8.9----30.02- 77.7 67.8----
2024-05-21 02:18 pmSSW 6.0 8.0----30.02- 78.1 67.8----
2024-05-21 02:12 pmSSW 5.1 7.0----30.02- 78.4 68.0----
2024-05-21 02:06 pmSSW 7.0 9.9----30.01- 78.3 68.0----
2024-05-21 02:00 pm S 8.0 9.9----30.02-0.04 77.4 68.0----
2024-05-21 01:54 pm SW 5.1 8.9----30.02- 77.5 68.0----
2024-05-21 01:48 pm SW 6.0 8.9------------
2024-05-21 01:42 pmSSW 1.0 7.0----30.02- 78.4 67.8----
2024-05-21 01:36 pmSSE 6.0 7.0----30.02- 77.5 67.8----
2024-05-21 01:30 pm S 5.1 8.9----30.03- 77.4 68.2----
2024-05-21 01:24 pm S 6.0 8.9----30.03- 77.5 68.2----
2024-05-21 01:18 pmSSW 1.9 8.0----30.03- 77.7 68.2----
2024-05-21 01:12 pm SW 5.1 8.9----30.03- 77.0 68.2----
2024-05-21 01:06 pmSSE 4.1 5.1----30.03- 77.0 68.2----
2024-05-21 01:00 pm E 1.9 2.9----30.04-0.03 76.1 68.2----
2024-05-21 12:54 pm NE 1.9 4.1----30.04- 74.7 68.2----
2024-05-21 12:48 pmENE 2.9 5.1----30.04-- 68.4----
2024-05-21 12:42 pm NE 1.9 4.1----30.04- 75.0 68.2----
2024-05-21 12:36 pm NE 2.9 4.1----30.04- 74.1 68.2----
2024-05-21 12:30 pm NE 4.1 5.1----30.04- 74.1 68.2----
2024-05-21 12:24 pm NE 2.9 5.1----30.04- 73.8 68.2----
2024-05-21 12:18 pmENE 4.1 5.1----30.04- 72.9 68.2----
2024-05-21 12:12 pmENE 6.0 6.0----30.04- 72.1 68.2----
2024-05-21 12:06 pm NE 4.1 5.1----30.04- 72.1 68.2----
2024-05-21 12:00 pm E 5.1 5.1----30.04-0.04 71.2 68.2----
2024-05-21 11:54 amENE 5.1 5.1----30.05- 71.1 68.0----
2024-05-21 11:48 am E 6.0 6.0----30.05- 70.7 68.0----
2024-05-21 11:42 am E 4.1 5.1----30.05- 70.3 68.0----
2024-05-21 11:36 amENE 5.1 5.1----30.05- 70.0 67.8----
2024-05-21 11:30 amENE 4.1 5.1----30.05- 70.2 67.8----
2024-05-21 11:24 am E 5.1 5.1----30.06- 69.3 67.8----
2024-05-21 11:18 amENE 5.1 5.1----30.05-- 67.6----
2024-05-21 11:12 amENE 5.1 5.1----30.05- 68.7 67.6----
2024-05-21 11:06 amENE 4.1 5.1----30.05- 68.4 67.6----
2024-05-21 11:00 amENE 4.1 5.1----30.06-0.02 67.8 67.5----
2024-05-21 10:54 am E 4.1 5.1----30.06- 67.5 67.5----
2024-05-21 10:48 am E 4.1 5.1----30.06- 66.9 67.5----
2024-05-21 10:42 am E 5.1 5.1----30.06- 66.4 67.5----
2024-05-21 10:36 amENE 4.1 5.1----30.06- 66.0 67.3----
2024-05-21 10:30 amENE 4.1 5.1----30.06- 65.7 67.3----
2024-05-21 10:24 amENE 4.1 5.1----30.06- 65.5 67.3----
2024-05-21 10:18 am E 5.1 5.1----30.06-- 67.3----
2024-05-21 10:12 am E 4.1 5.1----30.06- 65.8 67.3----
2024-05-21 10:06 am E 2.9 4.1----30.06- 66.2 67.3----
2024-05-21 10:00 am E 2.9 4.1----30.07+0.02 66.2 67.3----
2024-05-21 09:54 amESE 2.9 4.1----30.07- 67.6 67.3----
2024-05-21 09:48 amSSE 1.9 5.1----30.07- 66.9 67.3----
2024-05-21 09:42 am S 4.1 4.1----30.07- 66.0 67.3----
2024-05-21 09:36 amSSW 1.9 2.9----30.07- 65.3 67.3----
2024-05-21 09:30 am W 1.9 5.1----30.07- 64.4 67.3----
2024-05-21 09:24 am SW 1.9 5.1----30.08- 64.0 67.3----
2024-05-21 09:18 am S 4.1 5.1----30.08- 63.9 67.3----
2024-05-21 09:12 am SW 2.9 4.1----30.08- 63.9 67.3----
2024-05-21 09:06 am- 0.0 1.9----30.08- 63.7 67.3----
2024-05-21 09:00 am- 0.0 1.9----30.08+0.05 63.5 67.3----
2024-05-21 08:54 am- 0.0 2.9----30.08- 63.5 67.3----
2024-05-21 08:48 amSSW 1.0 2.9----30.08- 62.8 67.3----
2024-05-21 08:42 am- 0.0 1.0----30.08- 63.0 67.3----
2024-05-21 08:36 am- 0.0 1.0----30.08- 62.6 67.3----
2024-05-21 08:30 am- 0.0 1.9----30.08- 62.4 67.3----
2024-05-21 08:24 amWSW 1.0 4.1----30.08- 62.1 67.3----
2024-05-21 08:18 amSSW 1.9 4.1----30.08-- 67.3----
2024-05-21 08:12 amSSW 1.0 1.9----30.08- 61.9 67.5----
2024-05-21 08:06 am W 1.0 2.9----30.08- 61.5 67.5----
2024-05-21 08:00 am- 0.0 2.9----30.08+0.05 61.3 67.5----
2024-05-21 07:54 am W 1.9 4.1----30.07- 61.3 67.5----
2024-05-21 07:48 am W 4.1 5.1----30.07- 61.2 67.5----
2024-05-21 07:42 amWNW 2.9 4.1----30.07- 61.2 67.3----
2024-05-21 07:36 amWSW 2.9 4.1----30.06- 61.0 67.3----
2024-05-21 07:30 amWSW 2.9 4.1----30.06- 60.8 67.3----
2024-05-21 07:24 am W 2.9 5.1----30.06- 60.8 67.3----
2024-05-21 07:18 am W 4.1 5.1----30.06- 61.0 67.3----
2024-05-21 07:12 am SW 1.9 5.1----30.06- 61.0 67.1----
2024-05-21 07:06 amSSW 5.1 6.0----30.05- 61.0 67.1----
2024-05-21 07:00 am S 4.1 5.1----30.05+0.02 61.2 67.1----
2024-05-21 06:54 amSSW 1.9 4.1----30.04- 61.5 67.1----
2024-05-21 06:48 amSSW 2.9 6.0----30.05- 61.5 67.1----
2024-05-21 06:42 amWSW 4.1 6.0----30.04- 61.2 67.1----
2024-05-21 06:36 am SW 4.1 6.0----30.04- 61.2 67.1----
2024-05-21 06:30 am SW 2.9 5.1----30.04- 61.5 67.1----
2024-05-21 06:24 amSSW 2.9 6.0----30.04- 61.5 67.1----
2024-05-21 06:18 amSSW 2.9 4.1----30.04- 61.5 67.1----
2024-05-21 06:12 amWSW 2.9 2.9----30.04- 61.5 67.1----
2024-05-21 06:06 am S 1.9 4.1----30.03- 61.3 67.1----
2024-05-21 06:00 am S 1.9 2.9----30.03+0.01 61.2 67.1----
2024-05-21 05:54 amSSW 1.9 2.9----30.03- 61.5 67.1----
2024-05-21 05:48 am S 1.9 2.9----30.03- 61.3 67.1----
2024-05-21 05:42 am- 0.0 1.9----30.03- 61.3 67.1----
2024-05-21 05:36 amSSE 1.0 1.9----30.02- 61.5 67.1----
2024-05-21 05:30 am- 0.0 1.9----30.02- 61.5 66.9----
2024-05-21 05:24 amSSE 1.0 2.9----30.02- 61.3 66.9----
2024-05-21 05:18 am S 1.9 2.9----30.02- 61.5 66.9----
2024-05-21 05:12 am S 1.9 5.1----30.02- 61.3 66.9----
2024-05-21 05:06 am S 1.9 2.9----30.02- 61.7 66.9----
2024-05-21 05:00 am S 2.9 2.9----30.02+0.00 61.5 66.9----
2024-05-21 04:54 amSSW 1.9 4.1----30.02- 61.5 66.9----